DW3982 Weather Reports


Display with metric or nautical units.
time (UTC)temp
F
wind
direction
speed
MPH
gust
MPH
rain 1hr
in
rain 24hr
in
rain mn
in
humidity
%
barometer
mb
20260505180510 80 305 10.0 12.0 0.00 0.00 0.00 40 1009.5
20260505180009 80 240 6.0 8.0 0.00 0.00 0.00 41 1009.5
20260505175503 80 287 5.0 9.0 0.00 0.00 0.00 42 1009.6
20260505175000 80 297 12.0 14.0 0.00 0.00 0.00 39 1009.6
20260505174457 80 246 5.0 9.0 0.00 0.00 0.00 43 1009.4
20260505173953 80 238 10.0 14.0 0.00 0.00 0.00 40 1009.7
20260505173449 80 40 6.0 8.0 0.00 0.00 0.00 41 1009.4
20260505172946 79 221 9.0 14.0 0.00 0.00 0.00 40 1009.8
20260505172445 79 278 9.0 12.0 0.00 0.00 0.00 41 1009.7
20260505171944 79 238 14.0 19.0 0.00 0.00 0.00 40 1010.0
20260505171441 79 166 5.0 6.0 0.00 0.00 0.00 43 1010.0
20260505170938 80 226 3.0 9.0 0.00 0.00 0.00 43 1010.0
20260505170435 79 331 6.0 11.0 0.00 0.00 0.00 45 1010.0
20260505165930 78 330 9.0 12.0 0.00 0.00 0.00 43 1010.1
20260505165427 79 189 11.0 15.0 0.00 0.00 0.00 42 1010.0
20260505164922 79 243 8.0 12.0 0.00 0.00 0.00 43 1010.2
20260505164419 78 266 5.0 8.0 0.00 0.00 0.00 44 1010.3
20260505163917 79 301 6.0 9.0 0.00 0.00 0.00 46 1010.5
20260505163416 78 288 6.0 8.0 0.00 0.00 0.00 46 1010.4
20260505162914 78 292 7.0 9.0 0.00 0.00 0.00 46 1010.5
20260505162409 78 295 7.0 9.0 0.00 0.00 0.00 46 1010.5
20260505161906 77 224 5.0 6.0 0.00 0.00 0.00 48 1010.6
20260505161403 78 282 11.0 14.0 0.00 0.00 0.00 46 1010.6
20260505160900 77 322 10.0 17.0 0.00 0.00 0.00 47 1010.8
20260505160359 77 17 5.0 8.0 0.00 0.00 0.00 46 1010.6
20260505153338 77 300 14.0 19.0 0.00 0.00 0.00 48 1010.9
20260505152835 77 284 7.0 9.0 0.00 0.00 0.00 48 1010.6
20260505152332 76 316 10.0 12.0 0.00 0.00 0.00 49 1010.7
20260505151832 75 327 8.0 12.0 0.00 0.00 0.00 49 1010.6
20260505151328 76 248 8.0 11.0 0.00 0.00 0.00 49 1010.7
20260505150825 75 319 6.0 9.0 0.00 0.00 0.00 49 1010.7
20260505150322 74 335 9.0 12.0 0.00 0.00 0.00 49 1010.6
20260505140247 71 69 4.0 5.0 0.00 0.00 0.00 55 1011.1
20260505130211 68 240 8.0 9.0 0.00 0.00 0.00 61 1011.4
20260505124701 67 218 6.0 9.0 0.00 0.00 0.00 63 1011.7
20260505124157 67 247 1.0 2.0 0.00 0.00 0.00 64 1011.6
20260505123653 66 237 2.0 3.0 0.00 0.00 0.00 66 1011.7
20260505123150 65 247 2.0 3.0 0.00 0.00 0.00 67 1011.7
20260505122647 65 238 3.0 5.0 0.00 0.00 0.00 67 1011.6
20260505122144 64 232 9.0 11.0 0.00 0.00 0.00 67 1011.4
20260505121641 64 233 5.0 8.0 0.00 0.00 0.00 68 1011.4
20260505121137 64 304 6.0 8.0 0.00 0.00 0.00 68 1011.3
20260505120633 64 217 3.0 6.0 0.00 0.00 0.00 70 1011.3
20260505120129 63 249 3.0 3.0 0.00 0.00 0.00 71 1011.3
20260505115623 62 273 0.0 2.0 0.00 0.00 0.00 72 1011.3
20260505115121 62 336 5.0 6.0 0.00 0.00 0.00 73 1011.2
20260505114618 62 318 3.0 5.0 0.00 0.00 0.00 72 1011.2
20260505114114 61 309 5.0 6.0 0.00 0.00 0.00 72 1011.4
20260505113611 60 335 1.0 2.0 0.00 0.00 0.00 74 1011.3
20260505113108 60 344 2.0 2.0 0.00 0.00 0.00 75 1011.2
20260505112604 59 220 0.0 0.0 0.00 0.00 0.00 75 1011.0
20260505112102 59 53 2.0 3.0 0.00 0.00 0.00 76 1011.1
20260505111556 60 346 0.0 0.0 0.00 0.00 0.00 75 1011.0
20260505111052 60 271 1.0 2.0 0.00 0.00 0.00 74 1010.8
20260505110549 59 273 2.0 2.0 0.00 0.00 0.00 75 1010.7
20260505102021 58 214 1.0 2.0 0.00 0.00 0.00 75 1010.5
20260505101520 58 91 0.0 2.0 0.00 0.00 0.00 76 1010.4
20260505101016 57 18 0.0 2.0 0.00 0.00 0.00 77 1010.4
20260505100513 56 339 0.0 0.0 0.00 0.00 0.00 80 1010.2
20260505100010 57 357 2.0 2.0 0.00 0.00 0.00 77 1010.5
20260505095506 56 282 0.0 0.0 0.00 0.00 0.00 79 1010.4
20260505095002 58 13 2.0 2.0 0.00 0.00 0.00 77 1010.2
20260505094459 59 2 1.0 2.0 0.00 0.00 0.00 75 1010.1
20260505093955 59 244 0.0 0.0 0.00 0.00 0.00 73 1010.4
20260505093452 59 167 2.0 2.0 0.00 0.00 0.00 73 1010.2
20260505092949 60 178 2.0 2.0 0.00 0.00 0.00 72 1010.0
20260505092446 58 204 1.0 2.0 0.00 0.00 0.00 75 1010.3
20260505091944 58 194 0.0 0.0 0.00 0.00 0.00 75 1010.3
20260505091441 58 173 3.0 3.0 0.00 0.00 0.00 75 1010.2
20260505090939 59 200 1.0 2.0 0.00 0.00 0.00 74 1010.2
20260505090437 59 162 2.0 3.0 0.00 0.00 0.00 74 1010.0
20260505085934 59 204 0.0 0.0 0.00 0.00 0.00 74 1010.1
20260505085432 59 165 2.0 2.0 0.00 0.00 0.00 73 1010.0
20260505084930 60 194 2.0 3.0 0.00 0.00 0.00 71 1010.0
20260505084428 60 180 1.0 2.0 0.00 0.00 0.00 71 1010.1
20260505083926 60 149 2.0 2.0 0.00 0.00 0.00 71 1010.1
20260505083423 60 172 2.0 3.0 0.00 0.00 0.00 71 1010.1
20260505082919 60 184 2.0 2.0 0.00 0.00 0.00 70 1010.2
20260505082415 60 177 0.0 0.0 0.00 0.00 0.00 71 1009.9
20260505081912 60 181 1.0 2.0 0.00 0.00 0.00 71 1009.9
20260505081409 60 149 2.0 3.0 0.00 0.00 0.00 71 1010.0
20260505080905 60 174 2.0 2.0 0.00 0.00 0.00 70 1009.9
20260505080401 60 156 1.0 2.0 0.00 0.00 0.00 70 1010.0
20260505075857 60 165 3.0 3.0 0.00 0.00 0.00 70 1010.1
20260505075354 61 191 1.0 2.0 0.00 0.00 0.00 69 1010.0
20260505074851 61 271 1.0 3.0 0.00 0.00 0.00 69 1009.8
20260505074348 61 175 1.0 2.0 0.00 0.00 0.00 69 1009.8
20260505073846 60 173 2.0 3.0 0.00 0.00 0.00 69 1010.0
20260505073343 60 150 3.0 3.0 0.00 0.00 0.00 70 1009.8
20260505072840 60 141 2.0 3.0 0.00 0.00 0.00 70 1009.5
20260505072336 60 165 1.0 2.0 0.00 0.00 0.00 70 1009.6
20260505071832 59 186 3.0 3.0 0.00 0.00 0.00 71 1009.8
20260505071329 59 194 2.0 3.0 0.00 0.00 0.00 70 1009.5
20260505070827 60 199 1.0 2.0 0.00 0.00 0.00 70 1009.6
20260505070324 60 175 2.0 2.0 0.00 0.00 0.00 69 1009.8
20260505065819 62 192 2.0 3.0 0.00 0.00 0.00 66 1009.7
20260505065316 62 158 1.0 2.0 0.00 0.00 0.00 66 1009.8
20260505064813 62 175 1.0 3.0 0.00 0.00 0.00 66 1009.9
20260505064310 61 204 2.0 2.0 0.00 0.00 0.00 66 1009.9
20260505063808 61 178 2.0 3.0 0.00 0.00 0.00 66 1010.1
20260505063304 61 180 1.0 2.0 0.00 0.00 0.00 66 1010.1
20260505062800 62 144 2.0 3.0 0.00 0.00 0.00 65 1009.9
20260505062258 61 247 0.0 2.0 0.00 0.00 0.00 65 1010.0
20260505061754 61 211 1.0 2.0 0.00 0.00 0.00 65 1010.2
20260505061253 61 201 0.0 2.0 0.00 0.00 0.00 66 1010.3
20260505060750 60 159 2.0 3.0 0.00 0.00 0.00 66 1010.3
20260505060247 60 158 3.0 3.0 0.00 0.00 0.00 67 1010.2
20260505055742 60 193 2.0 2.0 0.00 0.00 0.00 67 1010.3
20260505055238 60 181 1.0 2.0 0.00 0.00 0.00 68 1010.2
20260505054736 60 184 1.0 2.0 0.00 0.00 0.00 67 1010.1
20260505054234 60 180 2.0 3.0 0.00 0.00 0.00 66 1010.1
20260505053732 60 171 3.0 3.0 0.00 0.00 0.00 66 1010.3
20260505053228 60 164 2.0 3.0 0.00 0.00 0.00 66 1010.2
20260505052725 60 177 2.0 2.0 0.00 0.00 0.00 66 1010.3
20260505052222 60 207 1.0 2.0 0.00 0.00 0.00 66 1010.2
20260505051719 60 175 1.0 2.0 0.00 0.00 0.00 66 1010.1
20260505051212 61 194 0.0 2.0 0.00 0.00 0.00 66 1010.1
20260505050709 61 229 1.0 2.0 0.00 0.00 0.00 66 1010.0
20260505050207 61 183 2.0 2.0 0.00 0.00 0.00 65 1010.0
20260505041637 61 193 2.0 2.0 0.00 0.00 0.00 64 1010.1
20260505041134 61 192 2.0 2.0 0.00 0.00 0.00 64 1010.1
20260505040631 61 215 2.0 3.0 0.00 0.00 0.00 63 1009.9
20260505040128 62 179 2.0 2.0 0.00 0.00 0.00 62 1009.9
20260505035624 62 176 2.0 3.0 0.00 0.00 0.00 61 1010.0
20260505035121 62 191 2.0 3.0 0.00 0.00 0.00 61 1010.1
20260505034618 62 242 2.0 3.0 0.00 0.00 0.00 61 1009.9
20260505034114 61 205 2.0 2.0 0.00 0.00 0.00 63 1010.0
20260505033611 60 160 3.0 3.0 0.00 0.00 0.00 63 1009.8
20260505033110 60 167 2.0 3.0 0.00 0.00 0.00 64 1009.9
20260505032607 60 161 2.0 3.0 0.00 0.00 0.00 63 1009.8
20260505032103 61 154 2.0 3.0 0.00 0.00 0.00 62 1009.6
20260505031601 61 202 1.0 2.0 0.00 0.00 0.00 62 1009.7
20260505031057 61 195 1.0 2.0 0.00 0.00 0.00 63 1009.8
20260505030554 61 182 2.0 3.0 0.00 0.00 0.00 62 1009.6
20260505030050 61 184 3.0 3.0 0.00 0.00 0.00 62 1009.7
20260505025546 62 199 2.0 3.0 0.00 0.00 0.00 62 1009.7
20260505025045 62 184 2.0 3.0 0.00 0.00 0.00 61 1009.4
20260505024541 62 170 6.0 9.0 0.00 0.00 0.00 60 1009.7
20260505024039 62 164 5.0 6.0 0.00 0.00 0.00 60 1009.8
20260505023536 62 216 5.0 6.0 0.00 0.00 0.00 60 1009.8
20260505023033 62 210 8.0 11.0 0.00 0.00 0.00 59 1009.9
20260505022531 62 205 2.0 3.0 0.00 0.00 0.00 60 1009.6
20260505022028 62 217 6.0 9.0 0.00 0.00 0.00 61 1009.8
20260505021524 61 171 3.0 3.0 0.00 0.00 0.00 61 1009.6
20260505021020 62 182 2.0 3.0 0.00 0.00 0.00 61 1009.8
20260505020515 62 156 3.0 3.0 0.00 0.00 0.00 61 1009.9
20260505020013 61 165 3.0 3.0 0.00 0.00 0.00 61 1009.7
20260505015509 62 172 2.0 3.0 0.00 0.00 0.00 61 1009.9
20260505015006 62 165 3.0 5.0 0.00 0.00 0.00 61 1009.7
20260505014503 62 207 3.0 5.0 0.00 0.00 0.00 60 1009.7
20260505014001 62 178 3.0 3.0 0.00 0.00 0.00 60 1009.8
20260505013457 62 185 2.0 3.0 0.00 0.00 0.00 59 1010.1
20260505012954 62 184 2.0 3.0 0.00 0.00 0.00 59 1010.1
20260505012453 63 196 3.0 3.0 0.00 0.00 0.00 58 1010.0
20260505011949 63 177 3.0 5.0 0.00 0.00 0.00 58 1009.9
20260505011445 63 172 5.0 8.0 0.00 0.00 0.00 57 1009.8
20260505010942 64 163 4.0 5.0 0.00 0.00 0.00 57 1009.3
20260505010438 64 186 4.0 5.0 0.00 0.00 0.00 56 1009.7
20260505005934 64 182 3.0 3.0 0.00 0.00 0.00 55 1009.6
20260505005431 64 210 6.0 8.0 0.00 0.00 0.00 54 1009.5
20260505004929 65 189 6.0 8.0 0.00 0.00 0.00 53 1009.5
20260505004425 65 272 3.0 5.0 0.00 0.00 0.00 53 1009.3
20260505003922 65 174 6.0 8.0 0.00 0.00 0.00 53 1009.3
20260505003419 65 192 9.0 11.0 0.00 0.00 0.00 52 1009.5
20260505002915 66 199 4.0 6.0 0.00 0.00 0.00 53 1009.2
20260505002412 66 198 6.0 8.0 0.00 0.00 0.00 53 1009.3
20260505001910 66 152 4.0 6.0 0.00 0.00 0.00 54 1009.3
20260505001408 66 186 6.0 8.0 0.00 0.00 0.00 55 1009.2
20260505000904 66 163 7.0 9.0 0.00 0.00 0.00 54 1009.1
20260505000403 67 199 5.0 6.0 0.00 0.00 0.00 53 1009.0
20260504235859 67 157 4.0 6.0 0.00 0.00 0.00 53 1009.0
20260504235356 68 292 7.0 8.0 0.00 0.00 0.00 51 1009.1
20260504234852 69 203 8.0 9.0 0.00 0.00 0.00 50 1009.0
20260504234350 70 206 5.0 5.0 0.00 0.00 0.00 47 1008.9
20260504233846 70 171 4.0 6.0 0.00 0.00 0.00 46 1008.8
20260504233342 70 185 7.0 9.0 0.00 0.00 0.00 45 1008.8
20260504232839 71 215 4.0 5.0 0.00 0.00 0.00 45 1008.9
20260504232336 71 174 2.0 5.0 0.00 0.00 0.00 44 1009.0
20260504231833 71 236 3.0 6.0 0.00 0.00 0.00 44 1008.7
20260504231329 71 186 4.0 6.0 0.00 0.00 0.00 44 1009.0
20260504230825 72 176 4.0 5.0 0.00 0.00 0.00 44 1008.6
20260504230323 72 254 2.0 3.0 0.00 0.00 0.00 43 1009.1
20260504225822 72 200 5.0 5.0 0.00 0.00 0.00 43 1009.1
20260504225318 72 221 5.0 8.0 0.00 0.00 0.00 42 1008.7
20260504224815 73 233 4.0 6.0 0.00 0.00 0.00 42 1009.0
20260504224312 73 241 4.0 8.0 0.00 0.00 0.00 41 1009.0
20260504223809 73 236 12.0 15.0 0.00 0.00 0.00 41 1009.1
20260504223304 72 274 9.0 11.0 0.00 0.00 0.00 41 1009.0
20260504222801 73 191 5.0 6.0 0.00 0.00 0.00 42 1009.2
20260504222258 73 267 6.0 9.0 0.00 0.00 0.00 41 1009.1
20260504221756 73 243 8.0 11.0 0.00 0.00 0.00 40 1009.2
20260504221253 73 260 10.0 14.0 0.00 0.00 0.00 40 1009.3
20260504220749 73 238 8.0 11.0 0.00 0.00 0.00 40 1008.8
20260504220246 73 278 11.0 17.0 0.00 0.00 0.00 40 1009.1
20260504215744 73 178 5.0 6.0 0.00 0.00 0.00 42 1009.2
20260504215240 73 160 8.0 9.0 0.00 0.00 0.00 41 1009.3
20260504214736 73 189 5.0 6.0 0.00 0.00 0.00 41 1009.2
20260504214233 73 185 12.0 14.0 0.00 0.00 0.00 39 1009.0
20260504213730 74 10 2.0 3.0 0.00 0.00 0.00 41 1009.0
20260504213226 74 236 5.0 6.0 0.00 0.00 0.00 40 1009.1
20260504212723 73 286 6.0 6.0 0.00 0.00 0.00 40 1009.1
20260504212220 74 148 5.0 8.0 0.00 0.00 0.00 40 1009.0
20260504211717 73 287 6.0 9.0 0.00 0.00 0.00 40 1008.9
20260504211213 73 245 3.0 5.0 0.00 0.00 0.00 41 1009.2
20260504210711 73 246 8.0 11.0 0.00 0.00 0.00 39 1009.3
20260504210207 73 230 5.0 6.0 0.00 0.00 0.00 40 1009.2
20260504205704 73 228 5.0 8.0 0.00 0.00 0.00 40 1009.0
20260504205202 74 209 5.0 8.0 0.00 0.00 0.00 40 1009.2
20260504204700 74 294 2.0 5.0 0.00 0.00 0.00 40 1009.1
20260504204159 74 209 5.0 8.0 0.00 0.00 0.00 40 1009.1
20260504203657 73 274 7.0 9.0 0.00 0.00 0.00 40 1009.1
20260504203155 73 318 3.0 5.0 0.00 0.00 0.00 39 1009.5
20260504202654 73 237 3.0 5.0 0.00 0.00 0.00 42 1009.2
20260504202152 73 214 4.0 6.0 0.00 0.00 0.00 40 1009.3
20260504201649 72 295 10.0 12.0 0.00 0.00 0.00 39 1009.7
20260504201146 72 207 10.0 14.0 0.00 0.00 0.00 40 1009.6
20260504200643 73 297 5.0 9.0 0.00 0.00 0.00 40 1009.6
20260504200140 72 245 6.0 8.0 0.00 0.00 0.00 41 1009.6
20260504195636 73 353 3.0 6.0 0.00 0.00 0.00 41 1009.8
20260504195132 73 280 2.0 3.0 0.00 0.00 0.00 41 1009.7
20260504194629 73 272 10.0 14.0 0.00 0.00 0.00 41 1010.0
20260504194125 73 300 2.0 3.0 0.00 0.00 0.00 41 1010.1
20260504193621 72 300 6.0 12.0 0.00 0.00 0.00 42 1010.2
20260504193120 72 257 13.0 17.0 0.00 0.00 0.00 40 1010.3
20260504192617 72 254 3.0 6.0 0.00 0.00 0.00 42 1010.4
20260504192115 72 182 10.0 14.0 0.00 0.00 0.00 41 1010.4
20260504191614 72 312 5.0 6.0 0.00 0.00 0.00 40 1010.5
20260504191109 72 320 2.0 3.0 0.00 0.00 0.00 41 1010.6
20260504190606 72 354 9.0 14.0 0.00 0.00 0.00 41 1010.7
20260504185559 71 258 3.0 5.0 0.00 0.00 0.00 41 1010.8
20260504185055 71 166 8.0 12.0 0.00 0.00 0.00 40 1010.9
20260504184551 71 257 8.0 9.0 0.00 0.00 0.00 41 1010.8
20260504184046 71 316 9.0 12.0 0.00 0.00 0.00 41 1010.9
20260504183544 70 286 14.0 15.0 0.00 0.00 0.00 40 1010.9
20260504183042 70 271 13.0 17.0 0.00 0.00 0.00 42 1011.2
20260504182539 70 273 5.0 6.0 0.00 0.00 0.00 42 1011.0
20260504182036 70 266 7.0 8.0 0.00 0.00 0.00 41 1011.3
20260504181533 70 277 9.0 11.0 0.00 0.00 0.00 41 1011.6
20260504181031 69 234 7.0 9.0 0.00 0.00 0.00 41 1011.3